Date,TemperatureHighF,TemperatureAvgF,TemperatureLowF,DewpointHighF,DewpointAvgF,DewpointLowF,HumidityHigh,HumidityAvg,HumidityLow,PressureMaxIn,PressureMinIn,WindSpeedMaxMPH,WindSpeedAvgMPH,GustSpeedMaxMPH,PrecipitationSumIn
2013-3-1,78.8,55.6,36.7,25.0,18.6,12.2,42,26,10,27.67,27.54,5,1,5,0.00
2013-3-2,87.7,64.2,44.8,29.3,23.8,19.1,40,25,8,27.64,27.46,8,1,8,0.00
2013-3-3,82.4,64.6,47.5,31.1,23.6,15.4,39,24,10,27.48,27.30,8,2,8,0.00
2013-3-4,74.5,64.8,52.6,40.4,26.2,15.9,43,24,16,27.44,27.25,12,2,12,0.00
2013-3-5,85.5,64.1,47.3,32.5,28.5,23.5,48,29,15,27.46,27.35,8,2,12,0.00
2013-3-6,85.9,67.3,54.4,33.0,30.0,26.8,42,27,13,27.41,27.26,5,2,8,0.00
2013-3-7,81.2,64.5,50.8,31.8,26.0,17.3,43,26,10,27.34,27.25,8,2,10,0.00
2013-3-8,67.5,58.2,46.4,45.6,35.8,26.9,59,44,27,27.33,27.15,12,4,15,0.01
2013-3-9,54.4,48.4,42.5,39.2,34.9,30.4,74,60,48,27.43,27.32,6,1,8,0.01
2013-3-10,65.5,53.5,41.4,39.0,35.0,27.1,79,52,24,27.50,27.40,6,2,11,0.00
2013-3-11,76.0,57.0,40.9,38.5,29.9,21.7,64,40,15,27.51,27.37,5,1,6,0.00
2013-3-12,88.2,63.2,44.8,40.4,30.4,24.6,50,33,12,27.46,27.35,4,2,6,0.00
2013-3-13,96.1,70.5,51.3,34.5,29.7,23.8,47,26,7,27.50,27.38,6,2,6,0.00
2013-3-14,101.0,74.0,54.7,34.6,27.1,22.1,32,19,5,27.50,27.37,5,2,6,0.00
2013-3-15,103.0,73.9,55.1,36.0,25.4,20.4,29,17,5,27.42,27.28,8,2,10,0.00
2013-3-16,89.6,72.2,56.9,26.6,21.4,11.5,26,15,5,27.32,27.13,9,2,10,0.00
2013-3-17,85.0,69.0,56.2,25.7,20.2,13.5,23,16,10,27.31,27.20,10,3,11,0.00
2013-3-18,85.1,68.4,54.0,33.8,25.7,19.1,38,22,10,27.38,27.27,5,2,10,0.00
2013-3-19,80.8,67.4,55.6,36.9,28.3,23.0,36,24,15,27.41,27.30,6,2,8,0.00
2013-3-20,83.0,68.4,54.0,31.8,28.0,24.6,37,24,13,27.42,27.25,8,2,9,0.00
2013-3-21,81.9,68.4,56.9,34.9,30.8,26.4,33,25,17,27.25,27.12,7,1,7,0.00
2013-3-22,81.4,69.7,58.3,33.9,29.3,20.5,33,24,11,27.20,27.08,11,2,11,0.00
2013-3-23,79.2,63.5,51.5,32.4,21.8,6.6,41,23,8,27.35,27.20,8,2,13,0.00
2013-3-24,79.6,61.7,46.1,18.2,10.8,5.5,23,13,4,27.38,27.24,8,2,10,0.00
2013-3-25,85.1,65.0,47.2,22.5,14.4,5.7,21,14,8,27.37,27.27,5,1,8,0.00
2013-3-26,89.5,70.4,54.0,25.8,18.8,12.6,24,14,5,27.35,27.21,6,2,8,0.00
2013-3-27,86.4,70.4,55.8,25.5,20.3,14.6,22,16,8,27.38,27.26,9,2,9,0.00
2013-3-28,86.2,70.5,55.8,34.1,23.7,17.6,30,18,8,27.43,27.33,7,2,10,0.00
2013-3-29,88.0,71.6,56.5,34.5,23.7,13.8,31,18,7,27.46,27.35,6,1,7,0.00
2013-3-30,85.3,71.4,58.9,30.9,22.0,14.8,25,16,8,27.43,27.31,6,2,8,0.00
2013-3-31,87.1,69.8,52.9,29.9,25.0,18.9,34,21,10,27.41,27.27,5,2,9,0.00